Location: Newark
(51.0500°N, 12.4500°E)
Time: 00:39:02
(UTC+00:00)

Vanguard 1 - Pass Details

Date: 21 February 2020
Orbit: 649 x 3834 km, 34.2° (Epoch: 28 March)

Event Time Altitude Azimuth Distance (km) Brightness Sun altitude
Rises 05:35:02 0° 200° (SSW) 7,963 14.6 -6.6°
Reaches altitude 10° 05:42:40 10° 188° (S) 6,867 14.4 -5.4°
Maximum altitude 05:57:00 22° 148° (SSE) 5,267 14.4 -3.2°
Drops below altitude 10° 06:08:14 10° 105° (ESE) 5,330 16.1 -1.5°
Sets 06:12:57 0° 92° (E) 5,851 16.0 -0.8°
